This demonstration page uses our WeatherBlox Daily Observations layout. Learn more.

Left ArrowRight Arrow

Hourly Observations for March 30, 2022

Temp ( °F °C ) Dew Point ( °F °C ) Humidity (%) Winds ( mph kmh ) Pressure ( in mb ) Visibility ( mi km ) Precip ( " mm )
12:08 am 00:08 Cloudy 39 4 34 1 81 81 NNW 31 50 29.50 999 10 16 0.00 0.00
12:56 am 00:56 Cloudy 39 3.9 32 0 76 76 NNW 32 52 29.50 999 10 16 0.00 0.00
1:56 am 01:56 Cloudy 37 2.8 30 -1.1 76 76 NNW 32 52 29.54 1000 10 16 0.00 0.00
2:56 am 02:56 Cloudy 36 2.2 28 -2.2 73 73 NNW 30 48 29.56 1001 10 16 0.00 0.00
3:56 am 03:56 Cloudy 35 1.7 26 -3.3 70 70 NNW 24 39 29.57 1001 10 16 0.00 0.00
4:56 am 04:56 Cloudy 33 0.6 25 -3.9 72 72 NNW 25 41 29.60 1002 10 16 0.00 0.00
5:56 am 05:56 Cloudy 33 0.6 24 -4.4 70 70 NNW 25 41 29.62 1003 10 16 0.00 0.00
6:56 am 06:56 Cloudy 33 0.6 24 -4.4 70 70 NNW 21 33 29.65 1004 10 16 0.00 0.00
7:56 am 07:56 Cloudy 32 0 23 -5 69 69 NNW 25 41 29.66 1004 10 16 0.00 0.00
8:56 am 08:56 Cloudy 32 0 23 -5 69 69 NNW 23 37 29.67 1005 10 16 0.00 0.00
9:56 am 09:56 Cloudy 33 0.6 23 -5 66 66 NNW 30 48 29.68 1005 10 16 0.00 0.00
10:56 am 10:56 Cloudy 32 0 24 -4.4 73 73 NNW 26 43 29.73 1007 10 16 0.00 0.00
11:56 am 11:56 Cloudy 34 1.1 24 -4.4 67 67 NNW 24 39 29.75 1007 10 16 0.00 0.00
12:56 pm 12:56 Cloudy 34 1.1 23 -5 64 64 NNW 26 43 29.73 1007 10 16 0.00 0.00
1:56 pm 13:56 Cloudy 34 1.1 23 -5 64 64 NNW 25 41 29.74 1007 10 16 0.00 0.00
2:56 pm 14:56 Cloudy 34 1.1 23 -5 64 64 NNW 28 44 29.73 1007 10 16 0.00 0.00
3:56 pm 15:56 Cloudy 34 1.1 23 -5 64 64 NNW 25 41 29.71 1006 10 16 0.00 0.00
4:56 pm 16:56 Cloudy 34 1.1 23 -5 64 64 NNW 25 41 29.71 1006 10 16 0.00 0.00
5:56 pm 17:56 Cloudy 33 0.6 22 -5.6 64 64 NNW 23 37 29.72 1007 10 16 0.00 0.00
6:56 pm 18:56 Cloudy 32 0 24 -4.4 73 73 NW 18 30 29.73 1007 10 16 0.00 0.00
7:56 pm 19:56 Cloudy 31 -0.6 24 -4.4 76 76 NNW 20 31 29.75 1008 10 16 0.00 0.00
8:41 pm 20:41 Cloudy with Light Snow 28 -2 25 -4 86 86 NNW 17 28 29.84 1010 6 10 0.00 0.00
8:48 pm 20:48 Cloudy with Light Snow 28 -2 25 -4 86 86 NNW 15 24 29.84 1010 6 10 0.00 0.00
8:56 pm 20:56 Cloudy with Light Snow 29 -1.7 25 -3.9 85 85 N 18 30 29.78 1009 9 14 0.00 0.00
9:15 pm 21:15 Windy with Snow Likely 28 -2 25 -4 86 86 N 20 31 29.85 1011 5 8 0.00 0.00
9:41 pm 21:41 Cloudy with Light Snow 28 -2 27 -3 93 93 N 18 30 29.86 1011 2 3 0.00 0.00
9:48 pm 21:48 Cloudy with Light Snow 28 -2 27 -3 93 93 N 17 28 29.86 1011 2 3 0.00 0.00
9:56 pm 21:56 Cloudy with Light Snow 28 -2.2 25 -3.9 88 88 N 16 26 29.80 1009 2 3 0.00 0.00
10:05 pm 22:05 Cloudy with Light Snow 28 -2 25 -4 86 86 N 14 22 29.86 1011 2 3 0.00 0.00
10:20 pm 22:20 Windy with Snow Likely 28 -2 25 -4 86 86 N 20 31 29.86 1011 2 3 0.00 0.00
10:28 pm 22:28 Cloudy with Light Snow 27 -3 25 -4 93 93 N 17 28 29.87 1011 2 3 0.00 0.00
10:46 pm 22:46 Cloudy with Light Snow 27 -3 25 -4 93 93 N 15 24 29.87 1011 2 3 0.00 0.00
10:53 pm 22:53 Cloudy with Light Snow 27 -3 25 -4 93 93 N 15 24 29.87 1011 3 5 0.00 0.00
10:54 pm 22:54 Cloudy with Light Snow 27 -2.8 25 -3.9 92 92 N 15 24 29.81 1009 3 5 0.00 0.00
11:56 pm 23:56 Windy with Snow Likely 27 -2.8 23 -5 85 85 NNW 21 33 29.81 1010 9 14 0.00 0.00

Powered by AerisWeather